Location: Dompnac
(44.5644°N, 4.1026°E)
Time: 18:59:12
(UTC+00:00)

Cosmos 1634 Rocket - Pass Details

Date: 24 January 2021
Orbit: 961 x 991 km, 82.9° (Epoch: 05 March)

Event Time Altitude Azimuth Distance (km) Brightness Sun altitude
Rises 03:44:50 0° 122° (ESE) 3,636 7.6 -36.4°
Reaches altitude 10° 03:50:10 10° 84° (E) 2,699 7.1 -35.5°
Maximum altitude 03:51:01 10° 76° (ENE) 2,679 7.1 -35.4°
Drops below altitude 10° 03:51:52 10° 68° (ENE) 2,702 7.1 -35.2°
Sets 03:57:12 0° 29° (NNE) 3,662 7.4 -34.3°
